Time,TemperatureF,DewpointF,PressureIn,WindDirection,WindDirectionDegrees,WindSpeedMPH,WindSpeedGustMPH,Humidity,HourlyPrecipIn,Conditions,Clouds,dailyrainin,SoftwareType,DateUTC
2013-02-09 00:01:00,20.0,10.0,-100.00,SW,215,0.0,4.0,64,-99.99,,,-99.99,,2013-02-09 07:01:00,
2013-02-09 00:11:00,19.0,10.0,-100.00,SW,230,0.0,1.0,65,-99.99,,,-99.99,,2013-02-09 07:11:00,
2013-02-09 00:21:00,19.0,10.0,-100.00,SE,130,0.0,1.0,67,-99.99,,,-99.99,,2013-02-09 07:21:00,
2013-02-09 00:31:00,18.0,10.0,-100.00,South,170,0.0,1.0,68,-99.99,,,-99.99,,2013-02-09 07:31:00,
2013-02-09 00:42:00,19.0,10.0,-100.00,South,170,1.0,3.0,70,-99.99,,,-99.99,,2013-02-09 07:42:00,
2013-02-09 00:51:00,19.0,12.0,-100.00,SW,230,1.0,3.0,71,-99.99,,,-99.99,,2013-02-09 07:51:00,
2013-02-09 01:01:00,19.0,12.0,-100.00,South,185,1.0,2.0,72,-99.99,,,-99.99,,2013-02-09 08:01:00,
2013-02-09 01:11:00,19.0,12.0,-100.00,SW,225,3.0,4.0,74,-99.99,,,-99.99,,2013-02-09 08:11:00,
2013-02-09 01:21:00,20.0,13.0,-100.00,SSE,150,1.0,4.0,74,-99.99,,,-99.99,,2013-02-09 08:21:00,
2013-02-09 01:31:00,19.0,12.0,-100.00,SE,130,1.0,2.0,75,-99.99,,,-99.99,,2013-02-09 08:31:00,
2013-02-09 01:41:00,19.0,12.0,-100.00,SSW,210,1.0,2.0,75,-99.99,,,-99.99,,2013-02-09 08:41:00,
2013-02-09 01:52:00,18.0,12.0,-100.00,SE,145,0.0,2.0,75,-99.99,,,-99.99,,2013-02-09 08:52:00,
2013-02-09 02:02:00,18.0,12.0,-100.00,SSW,205,1.0,2.0,76,-99.99,,,-99.99,,2013-02-09 09:02:00,
2013-02-09 02:11:00,17.0,11.0,-100.00,SSW,195,0.0,2.0,77,-99.99,,,-99.99,,2013-02-09 09:11:00,
2013-02-09 02:21:00,18.0,12.0,-100.00,SW,230,2.0,3.0,78,-99.99,,,-99.99,,2013-02-09 09:21:00,
2013-02-09 02:31:00,18.0,13.0,-100.00,SW,230,2.0,3.0,78,-99.99,,,-99.99,,2013-02-09 09:31:00,
2013-02-09 02:41:00,19.0,13.0,-100.00,SW,225,1.0,4.0,79,-99.99,,,-99.99,,2013-02-09 09:41:00,
2013-02-09 02:51:00,18.0,13.0,-100.00,SW,235,2.0,4.0,80,-99.99,,,-99.99,,2013-02-09 09:51:00,
2013-02-09 03:01:00,18.0,13.0,-100.00,West,275,2.0,4.0,80,-99.99,,,-99.99,,2013-02-09 10:01:00,
2013-02-09 03:11:00,18.0,13.0,-100.00,SW,235,2.0,4.0,81,-99.99,,,-99.99,,2013-02-09 10:11:00,
2013-02-09 03:21:00,19.0,15.0,-100.00,South,190,2.0,5.0,81,-99.99,,,-99.99,,2013-02-09 10:21:00,
2013-02-09 03:31:00,21.0,15.0,-100.00,WSW,245,2.0,6.0,76,-99.99,,,-99.99,,2013-02-09 10:31:00,
2013-02-09 03:41:00,21.0,15.0,-100.00,West,260,1.0,4.0,75,-99.99,,,-99.99,,2013-02-09 10:41:00,
2013-02-09 03:51:00,20.0,14.0,-100.00,WSW,240,1.0,3.0,74,-99.99,,,-99.99,,2013-02-09 10:51:00,
2013-02-09 04:01:00,20.0,13.0,-100.00,SW,230,1.0,3.0,74,-99.99,,,-99.99,,2013-02-09 11:01:00,
2013-02-09 04:11:00,19.0,13.0,-100.00,SW,230,1.0,2.0,75,-99.99,,,-99.99,,2013-02-09 11:11:00,
2013-02-09 04:21:00,19.0,13.0,-100.00,SW,235,2.0,4.0,75,-99.99,,,-99.99,,2013-02-09 11:21:00,
2013-02-09 04:31:00,20.0,13.0,-100.00,SW,220,2.0,4.0,75,-99.99,,,-99.99,,2013-02-09 11:31:00,
2013-02-09 04:41:00,19.0,13.0,-100.00,South,190,1.0,3.0,75,-99.99,,,-99.99,,2013-02-09 11:41:00,
2013-02-09 04:52:00,19.0,13.0,-100.00,South,190,1.0,3.0,75,-99.99,,,-99.99,,2013-02-09 11:52:00,
2013-02-09 05:02:00,18.0,12.0,-100.00,SW,230,1.0,2.0,77,-99.99,,,-99.99,,2013-02-09 12:02:00,
2013-02-09 05:11:00,18.0,12.0,-100.00,SSW,210,1.0,2.0,78,-99.99,,,-99.99,,2013-02-09 12:11:00,
2013-02-09 05:21:00,18.0,13.0,-100.00,SSW,210,1.0,4.0,79,-99.99,,,-99.99,,2013-02-09 12:21:00,
2013-02-09 05:32:00,18.0,13.0,-100.00,SSW,210,1.0,3.0,79,-99.99,,,-99.99,,2013-02-09 12:32:00,
2013-02-09 05:42:00,18.0,13.0,-100.00,South,190,1.0,2.0,78,-99.99,,,-99.99,,2013-02-09 12:42:00,
2013-02-09 05:52:00,18.0,13.0,-100.00,SW,235,2.0,3.0,78,-99.99,,,-99.99,,2013-02-09 12:52:00,
2013-02-09 06:02:00,18.0,13.0,-100.00,WSW,245,2.0,4.0,78,-99.99,,,-99.99,,2013-02-09 13:02:00,
2013-02-09 06:11:00,19.0,13.0,-100.00,WSW,255,2.0,6.0,79,-99.99,,,-99.99,,2013-02-09 13:11:00,
2013-02-09 06:21:00,18.0,13.0,-100.00,SW,215,2.0,7.0,79,-99.99,,,-99.99,,2013-02-09 13:21:00,
2013-02-09 06:32:00,17.0,12.0,-100.00,WSW,250,1.0,5.0,79,-99.99,,,-99.99,,2013-02-09 13:32:00,
2013-02-09 06:42:00,16.0,11.0,-100.00,SW,225,2.0,4.0,80,-99.99,,,-99.99,,2013-02-09 13:42:00,
2013-02-09 06:51:00,16.0,11.0,-100.00,SW,225,2.0,4.0,81,-99.99,,,-99.99,,2013-02-09 13:51:00,
2013-02-09 07:01:00,16.0,11.0,-100.00,WSW,250,2.0,6.0,82,-99.99,,,-99.99,,2013-02-09 14:01:00,
2013-02-09 07:11:00,16.0,12.0,-100.00,SW,230,2.0,5.0,83,-99.99,,,-99.99,,2013-02-09 14:11:00,
2013-02-09 07:21:00,15.0,11.0,-100.00,WSW,245,3.0,5.0,84,-99.99,,,-99.99,,2013-02-09 14:21:00,
2013-02-09 07:31:00,16.0,12.0,-100.00,WSW,245,4.0,8.0,85,-99.99,,,-99.99,,2013-02-09 14:31:00,
2013-02-09 07:41:00,15.0,12.0,-100.00,WSW,245,1.0,4.0,85,-99.99,,,-99.99,,2013-02-09 14:41:00,
2013-02-09 07:52:00,15.0,12.0,-100.00,WSW,240,3.0,6.0,86,-99.99,,,-99.99,,2013-02-09 14:52:00,
2013-02-09 08:01:00,16.0,13.0,-100.00,WSW,245,2.0,6.0,87,-99.99,,,-99.99,,2013-02-09 15:01:00,
2013-02-09 08:11:00,17.0,14.0,-100.00,SSW,210,3.0,7.0,87,-99.99,,,-99.99,,2013-02-09 15:11:00,
2013-02-09 08:21:00,17.0,14.0,-100.00,ENE,60,0.0,7.0,87,-99.99,,,-99.99,,2013-02-09 15:21:00,
2013-02-09 08:32:00,16.0,13.0,-100.00,ESE,110,1.0,2.0,87,-99.99,,,-99.99,,2013-02-09 15:32:00,
2013-02-09 08:41:00,16.0,13.0,-100.00,SSW,205,0.0,1.0,87,-99.99,,,-99.99,,2013-02-09 15:41:00,
2013-02-09 08:51:00,15.0,12.0,-100.00,SSE,155,0.0,2.0,87,-99.99,,,-99.99,,2013-02-09 15:51:00,
2013-02-09 09:01:00,15.0,13.0,-100.00,SE,130,0.0,1.0,88,-99.99,,,-99.99,,2013-02-09 16:01:00,
2013-02-09 09:11:00,15.0,13.0,-100.00,SE,130,1.0,1.0,88,-99.99,,,-99.99,,2013-02-09 16:11:00,
2013-02-09 09:22:00,16.0,13.0,-100.00,SE,140,0.0,1.0,88,-99.99,,,-99.99,,2013-02-09 16:22:00,
2013-02-09 09:31:00,16.0,13.0,-100.00,East,85,1.0,1.0,88,-99.99,,,-99.99,,2013-02-09 16:31:00,
2013-02-09 09:41:00,18.0,15.0,-100.00,East,100,0.0,1.0,88,-99.99,,,-99.99,,2013-02-09 16:41:00,
2013-02-09 09:51:00,20.0,16.0,-100.00,NNE,20,1.0,2.0,86,-99.99,,,-99.99,,2013-02-09 16:51:00,
2013-02-09 10:01:00,21.0,17.0,-100.00,NE,50,3.0,4.0,82,-99.99,,,-99.99,,2013-02-09 17:01:00,
2013-02-09 10:11:00,22.0,17.0,-100.00,NE,45,2.0,4.0,79,-99.99,,,-99.99,,2013-02-09 17:11:00,
2013-02-09 10:21:00,23.0,17.0,-100.00,NE,45,3.0,5.0,77,-99.99,,,-99.99,,2013-02-09 17:21:00,
2013-02-09 10:32:00,24.0,17.0,-100.00,ENE,60,2.0,5.0,74,-99.99,,,-99.99,,2013-02-09 17:32:00,
2013-02-09 10:41:00,24.0,17.0,-100.00,NE,40,2.0,4.0,72,-99.99,,,-99.99,,2013-02-09 17:41:00,
2013-02-09 10:52:00,24.0,16.0,-100.00,NNE,30,1.0,5.0,72,-99.99,,,-99.99,,2013-02-09 17:52:00,
2013-02-09 11:01:00,24.0,16.0,-100.00,North,5,4.0,7.0,71,-99.99,,,-99.99,,2013-02-09 18:01:00,
2013-02-09 11:12:00,24.0,16.0,-100.00,North,0,1.0,6.0,70,-99.99,,,-99.99,,2013-02-09 18:12:00,
2013-02-09 11:23:00,24.0,15.0,-100.00,ENE,60,2.0,6.0,70,-99.99,,,-99.99,,2013-02-09 18:23:00,
2013-02-09 11:32:00,24.0,16.0,-100.00,East,85,0.0,4.0,72,-99.99,,,-99.99,,2013-02-09 18:32:00,
2013-02-09 11:42:00,23.0,17.0,-100.00,West,275,1.0,2.0,76,-99.99,,,-99.99,,2013-02-09 18:42:00,
2013-02-09 11:51:00,24.0,18.0,-100.00,NE,40,1.0,1.0,78,-99.99,,,-99.99,,2013-02-09 18:51:00,
2013-02-09 12:01:00,25.0,20.0,-100.00,ENE,65,1.0,2.0,80,-99.99,,,-99.99,,2013-02-09 19:01:00,
2013-02-09 12:11:00,26.0,20.0,-100.00,North,5,2.0,3.0,80,-99.99,,,-99.99,,2013-02-09 19:11:00,
2013-02-09 12:22:00,25.0,20.0,-100.00,NNW,335,4.0,8.0,80,-99.99,,,-99.99,,2013-02-09 19:22:00,
2013-02-09 12:31:00,24.0,18.0,-100.00,NW,320,6.0,12.0,77,-99.99,,,-99.99,,2013-02-09 19:31:00,
2013-02-09 12:41:00,24.0,17.0,-100.00,NW,325,6.0,17.0,75,-99.99,,,-99.99,,2013-02-09 19:41:00,
2013-02-09 12:52:00,22.0,16.0,-100.00,WNW,285,7.0,17.0,74,-99.99,,,-99.99,,2013-02-09 19:52:00,
2013-02-09 13:01:00,22.0,15.0,-100.00,NW,320,6.0,16.0,73,-99.99,,,-99.99,,2013-02-09 20:01:00,
2013-02-09 13:11:00,22.0,15.0,-100.00,NW,320,4.0,14.0,72,-99.99,,,-99.99,,2013-02-09 20:11:00,
2013-02-09 13:21:00,23.0,15.0,-100.00,NW,310,4.0,10.0,71,-99.99,,,-99.99,,2013-02-09 20:21:00,
2013-02-09 13:31:00,23.0,15.0,-100.00,North,350,5.0,12.0,69,-99.99,,,-99.99,,2013-02-09 20:31:00,
2013-02-09 13:41:00,24.0,15.0,-100.00,NW,320,9.0,18.0,67,-99.99,,,-99.99,,2013-02-09 20:41:00,
2013-02-09 13:52:00,25.0,14.0,-100.00,NW,310,4.0,19.0,64,-99.99,,,-99.99,,2013-02-09 20:52:00,
2013-02-09 14:02:00,25.0,14.0,-100.00,West,265,5.0,21.0,61,-99.99,,,-99.99,,2013-02-09 21:02:00,
2013-02-09 14:11:00,25.0,13.0,-100.00,WNW,295,7.0,16.0,60,-99.99,,,-99.99,,2013-02-09 21:11:00,
2013-02-09 14:21:00,26.0,13.0,-100.00,SW,220,2.0,12.0,59,-99.99,,,-99.99,,2013-02-09 21:21:00,
2013-02-09 14:31:00,26.0,13.0,-100.00,East,100,1.0,9.0,58,-99.99,,,-99.99,,2013-02-09 21:31:00,
2013-02-09 14:41:00,25.0,13.0,-100.00,West,270,3.0,11.0,58,-99.99,,,-99.99,,2013-02-09 21:41:00,
2013-02-09 14:52:00,26.0,13.0,-100.00,NNW,330,2.0,7.0,58,-99.99,,,-99.99,,2013-02-09 21:52:00,
2013-02-09 15:01:00,26.0,13.0,-100.00,West,280,3.0,7.0,57,-99.99,,,-99.99,,2013-02-09 22:01:00,
2013-02-09 15:11:00,26.0,13.0,-100.00,WNW,285,1.0,7.0,57,-99.99,,,-99.99,,2013-02-09 22:11:00,
2013-02-09 15:21:00,26.0,14.0,-100.00,North,5,3.0,9.0,60,-99.99,,,-99.99,,2013-02-09 22:21:00,
2013-02-09 15:32:00,26.0,16.0,-100.00,ENE,65,2.0,11.0,67,-99.99,,,-99.99,,2013-02-09 22:32:00,
2013-02-09 15:41:00,25.0,17.0,-100.00,SW,220,1.0,6.0,70,-99.99,,,-99.99,,2013-02-09 22:41:00,
2013-02-09 15:51:00,25.0,17.0,-100.00,North,0,2.0,3.0,72,-99.99,,,-99.99,,2013-02-09 22:51:00,
2013-02-09 16:01:00,24.0,18.0,-100.00,NNE,15,3.0,7.0,74,-99.99,,,-99.99,,2013-02-09 23:01:00,
2013-02-09 16:11:00,24.0,18.0,-100.00,NE,40,2.0,7.0,75,-99.99,,,-99.99,,2013-02-09 23:11:00,
2013-02-09 16:21:00,24.0,18.0,-100.00,NE,55,4.0,8.0,77,-99.99,,,-99.99,,2013-02-09 23:21:00,
2013-02-09 16:31:00,23.0,18.0,-100.00,NE,55,4.0,9.0,79,-99.99,,,-99.99,,2013-02-09 23:31:00,
2013-02-09 16:42:00,23.0,18.0,-100.00,North,5,4.0,7.0,81,-99.99,,,-99.99,,2013-02-09 23:42:00,
2013-02-09 16:52:00,22.0,18.0,-100.00,ENE,60,4.0,7.0,83,-99.99,,,-99.99,,2013-02-09 23:52:00,
2013-02-09 17:02:00,22.0,18.0,-100.00,NE,40,3.0,7.0,84,-99.99,,,-99.99,,2013-02-10 00:02:00,
2013-02-09 17:11:00,22.0,18.0,-100.00,NE,50,2.0,6.0,85,-99.99,,,-99.99,,2013-02-10 00:11:00,
2013-02-09 17:21:00,22.0,18.0,-100.00,ENE,70,2.0,6.0,86,-99.99,,,-99.99,,2013-02-10 00:21:00,
2013-02-09 17:32:00,21.0,19.0,-100.00,ENE,65,3.0,6.0,88,-99.99,,,-99.99,,2013-02-10 00:32:00,
2013-02-09 17:41:00,21.0,19.0,-100.00,North,5,1.0,6.0,89,-99.99,,,-99.99,,2013-02-10 00:41:00,
2013-02-09 17:51:00,21.0,19.0,-100.00,NE,35,2.0,6.0,91,-99.99,,,-99.99,,2013-02-10 00:51:00,
2013-02-09 18:01:00,20.0,19.0,-100.00,NNE,30,2.0,6.0,93,-99.99,,,-99.99,,2013-02-10 01:01:00,
2013-02-09 18:12:00,20.0,19.0,-100.00,North,10,1.0,4.0,94,-99.99,,,-99.99,,2013-02-10 01:12:00,
2013-02-09 18:21:00,20.0,19.0,-100.00,NE,35,1.0,4.0,94,-99.99,,,-99.99,,2013-02-10 01:21:00,
2013-02-09 18:31:00,20.0,19.0,-100.00,NE,45,0.0,4.0,95,-99.99,,,-99.99,,2013-02-10 01:31:00,
2013-02-09 18:42:00,19.0,18.0,-100.00,SE,140,2.0,4.0,96,-99.99,,,-99.99,,2013-02-10 01:42:00,
2013-02-09 18:51:00,18.0,17.0,-100.00,SW,220,2.0,4.0,96,-99.99,,,-99.99,,2013-02-10 01:51:00,
2013-02-09 19:01:00,18.0,17.0,-100.00,SW,235,2.0,7.0,96,-99.99,,,-99.99,,2013-02-10 02:01:00,
2013-02-09 19:11:00,18.0,17.0,-100.00,West,270,2.0,6.0,97,-99.99,,,-99.99,,2013-02-10 02:11:00,
2013-02-09 19:22:00,17.0,17.0,-100.00,WNW,290,2.0,8.0,97,-99.99,,,-99.99,,2013-02-10 02:22:00,
2013-02-09 19:31:00,17.0,16.0,-100.00,SSW,200,1.0,8.0,93,-99.99,,,-99.99,,2013-02-10 02:31:00,
2013-02-09 19:41:00,18.0,15.0,-100.00,West,280,2.0,9.0,85,-99.99,,,-99.99,,2013-02-10 02:41:00,
2013-02-09 19:52:00,18.0,14.0,-100.00,SSE,155,2.0,6.0,84,-99.99,,,-99.99,,2013-02-10 02:52:00,
2013-02-09 20:01:00,17.0,13.0,-100.00,East,95,4.0,7.0,82,-99.99,,,-99.99,,2013-02-10 03:01:00,
2013-02-09 20:11:00,18.0,12.0,-100.00,WNW,300,6.0,11.0,75,-99.99,,,-99.99,,2013-02-10 03:11:00,
2013-02-09 20:21:00,19.0,11.0,-100.00,WNW,300,5.0,12.0,71,-99.99,,,-99.99,,2013-02-10 03:21:00,
2013-02-09 20:32:00,19.0,11.0,-100.00,NW,310,1.0,7.0,71,-99.99,,,-99.99,,2013-02-10 03:32:00,
2013-02-09 20:41:00,18.0,11.0,-100.00,WSW,240,1.0,5.0,72,-99.99,,,-99.99,,2013-02-10 03:41:00,
2013-02-09 20:51:00,18.0,11.0,-100.00,WNW,300,4.0,7.0,72,-99.99,,,-99.99,,2013-02-10 03:51:00,
2013-02-09 21:01:00,18.0,10.0,-100.00,SSE,165,1.0,9.0,71,-99.99,,,-99.99,,2013-02-10 04:01:00,
2013-02-09 21:11:00,18.0,10.0,-100.00,SSW,210,3.0,11.0,70,-99.99,,,-99.99,,2013-02-10 04:11:00,
2013-02-09 21:21:00,18.0,10.0,-100.00,West,280,6.0,13.0,68,-99.99,,,-99.99,,2013-02-10 04:21:00,
2013-02-09 21:32:00,18.0,9.0,-100.00,WNW,285,7.0,13.0,66,-99.99,,,-99.99,,2013-02-10 04:32:00,
2013-02-09 21:41:00,18.0,9.0,-100.00,NW,320,6.0,17.0,65,-99.99,,,-99.99,,2013-02-10 04:41:00,
2013-02-09 21:51:00,18.0,8.0,-100.00,NW,315,6.0,14.0,64,-99.99,,,-99.99,,2013-02-10 04:51:00,
2013-02-09 22:01:00,18.0,8.0,-100.00,NNW,330,8.0,21.0,63,-99.99,,,-99.99,,2013-02-10 05:01:00,
2013-02-09 22:11:00,18.0,8.0,-100.00,West,270,7.0,16.0,64,-99.99,,,-99.99,,2013-02-10 05:11:00,
2013-02-09 22:22:00,18.0,8.0,-100.00,WNW,290,9.0,19.0,65,-99.99,,,-99.99,,2013-02-10 05:22:00,
2013-02-09 22:31:00,17.0,8.0,-100.00,WSW,240,4.0,16.0,66,-99.99,,,-99.99,,2013-02-10 05:31:00,
2013-02-09 22:41:00,17.0,8.0,-100.00,NNW,340,3.0,14.0,67,-99.99,,,-99.99,,2013-02-10 05:41:00,
2013-02-09 22:52:00,17.0,8.0,-100.00,NW,305,9.0,15.0,66,-99.99,,,-99.99,,2013-02-10 05:52:00,
2013-02-09 23:01:00,17.0,8.0,-100.00,WSW,255,4.0,19.0,66,-99.99,,,-99.99,,2013-02-10 06:01:00,
2013-02-09 23:11:00,17.0,8.0,-100.00,WNW,290,7.0,17.0,65,-99.99,,,-99.99,,2013-02-10 06:11:00,
2013-02-09 23:21:00,17.0,7.0,-100.00,NW,310,4.0,16.0,65,-99.99,,,-99.99,,2013-02-10 06:21:00,
2013-02-09 23:32:00,17.0,7.0,-100.00,WNW,290,4.0,16.0,64,-99.99,,,-99.99,,2013-02-10 06:32:00,
2013-02-09 23:42:00,17.0,7.0,-100.00,WNW,300,5.0,21.0,63,-99.99,,,-99.99,,2013-02-10 06:42:00,
2013-02-09 23:51:00,17.0,6.0,-100.00,NW,325,9.0,21.0,61,-99.99,,,-99.99,,2013-02-10 06:51:00,